Вернуться в каталог

STARLINK-31904

АктивенСвязьVLEO
NORAD 59657·PAYLOAD·🇺🇸 United States

Запущен May 6, 2024 с Cape Canaveral Space Force Station

Loading…

Ближайшие Пролёты (ближайшие 24 часа)

TLE

СвежийSource: CelesTrak SupGP

Эпоха: Sep 15, 2026, 02:37 UTC

1 59657C 24084D   26258.10951389 -.00030888  00000+0 -11187-2 0  2585
2 59657  43.0009  52.1248 0001488 267.5229  20.7403 15.27596096    13

Отслеживайте STARLINK-31904 в реальном времени с AllMySat

Download on the App Store